Wind_Speed
25 24 24 25 27 26 26 27 27 27 25 24 23 23 23 24 24 22 20 21 21 22 22 22 22 22 22 21 19 19 18 17 16 15 15 14 13 12 11 11 10 10 9
26 25 24 24 25 25 25 27 27 26 27 26 25 24 23 23 23 24 22 22 23 24 24 24 25 24 24 24 23 21 21 20 19 18 17 16 15 14 14 13 12 11 10
24 24 24 23 23 24 24 24 25 25 26 26 26 25 24 24 24 24 24 24 25 25 25 25 26 26 26 27 26 24 23 22 21 20 20 19 18 16 16 15 14 13 12
23 23 23 22 23 23 23 23 25 25 25 26 26 26 25 24 24 25 25 25 26 26 26 27 27 28 28 28 28 28 26 25 24 23 22 22 21 19 18 17 16 15 14
25 25 24 23 23 23 22 22 24 26 27 26 26 26 26 26 25 24 24 26 26 27 27 27 28 29 31 30 29 29 29 28 27 26 24 24 23 22 21 19 18 17 16
25 26 25 25 24 24 25 25 25 26 27 27 27 27 27 27 27 26 26 27 27 27 27 27 28 29 31 32 31 31 30 30 29 28 27 26 26 25 24 22 21 20 19
26 26 26 26 26 26 26 26 26 27 27 28 28 28 28 27 28 28 27 27 28 28 29 29 28 29 32 34 33 33 32 32 32 30 29 28 29 27 26 25 24 22 21
26 26 26 26 27 27 27 28 28 28 29 29 30 30 30 29 30 30 29 28 29 30 30 30 30 30 31 33 34 34 33 33 33 32 32 31 30 30 29 27 26 25 24
25 25 26 27 28 28 28 29 29 30 30 30 31 31 31 31 32 31 31 31 31 32 32 31 32 32 32 32 34 34 33 33 32 34 34 33 32 32 32 30 29 28 26
24 25 26 27 28 29 29 29 30 30 31 31 32 32 33 33 33 33 33 32 33 33 33 33 33 33 34 33 33 34 33 34 34 34 35 35 34 34 33 32 31 31 29
25 26 26 27 28 29 29 30 31 31 32 32 32 33 33 34 34 35 34 33 34 34 35 35 35 34 35 35 34 34 34 35 34 35 35 36 36 35 35 34 33 32 32
26 26 27 28 29 30 30 31 32 32 33 33 34 34 35 35 35 35 35 35 35 35 36 36 36 35 36 35 35 35 35 35 36 36 37 37 36 36 36 36 35 33 33
27 27 28 28 29 31 31 32 32 33 34 34 35 35 35 35 35 36 36 35 36 36 36 36 37 37 37 37 36 36 36 36 37 37 37 37 36 36 37 37 36 35 35
28 29 29 30 31 31 32 33 33 33 34 34 34 34 35 35 36 36 37 37 38 39 39 38 38 38 38 38 38 37 37 36 37 37 37 37 37 36 37 37 37 35 35
29 29 30 31 31 31 32 32 33 33 34 34 35 35 35 36 36 37 37 38 39 39 40 40 39 40 40 40 39 39 39 38 38 39 38 38 38 37 36 38 38 37 36
29 30 30 30 31 32 32 32 33 33 33 34 35 36 36 37 37 38 38 39 40 40 40 41 41 41 42 41 40 40 40 40 39 39 39 39 39 39 37 38 38 38 38
30 30 31 31 31 32 32 32 33 33 33 34 35 36 36 37 38 39 39 40 40 41 41 42 43 43 42 42 41 42 42 41 41 40 40 39 39 40 40 39 39 39 38
31 31 31 32 32 32 32 32 32 33 33 34 35 36 37 38 39 40 40 41 41 41 42 42 43 44 44 43 42 43 43 41 42 42 41 40 40 40 41 41 40 40 39
32 32 32 32 32 32 32 32 32 33 33 34 35 36 37 38 39 40 41 41 42 42 41 42 43 44 44 44 43 43 43 43 42 42 42 42 41 40 41 42 42 41 40
33 33 33 33 33 33 33 33 32 32 33 33 34 35 36 38 39 40 41 41 42 42 43 43 43 44 45 44 45 44 44 44 44 43 43 43 42 42 43 43 43 42 41
34 34 34 34 34 33 33 32 33 33 32 32 33 34 35 37 38 39 40 41 42 43 43 44 44 44 44 44 45 45 44 44 45 45 44 45 44 44 44 44 43 43 42
35 35 35 35 35 34 33 33 33 32 32 32 32 32 33 34 35 37 39 40 42 42 42 43 44 45 45 45 45 45 45 44 45 46 45 45 45 44 45 46 45 44 42
37 36 36 35 35 35 34 33 33 32 32 32 32 32 32 33 34 35 36 38 40 41 42 42 43 44 44 45 45 45 46 45 45 45 46 45 44 45 46 46 45 45 44
37 37 36 36 35 35 34 34 33 32 31 31 31 31 31 32 33 34 35 36 38 39 41 42 43 44 45 45 45 45 45 45 44 45 45 45 45 45 46 47 46 46 45
38 37 37 37 36 35 35 34 33 31 30 30 30 30 30 31 32 33 34 35 36 38 40 41 42 43 46 46 47 46 45 45 44 43 45 45 46 46 45 46 47 47 46
38 38 38 38 37 36 35 33 32 31 31 30 29 29 28 29 30 31 32 33 34 36 39 40 41 42 44 46 46 46 44 43 43 43 44 44 44 45 46 47 47 47 48
Wind_Direction
287 289 285 277 275 272 267 262 260 260 262 267 267 266 262 259 258 257 254 253 250 247 245 240 235 234 232 231 231 230 230 229 226 223 221 219 217 214 212 211 209 206 203
291 288 290 283 277 273 270 266 263 261 261 265 267 267 262 258 257 256 253 251 250 248 245 240 236 235 233 233 232 232 231 230 230 228 225 223 221 220 218 216 215 213 211
294 293 292 288 284 277 272 269 267 266 265 264 266 266 262 260 258 257 255 253 252 249 246 240 238 237 235 233 233 233 232 231 230 230 229 226 225 223 222 220 219 219 218
294 293 295 289 285 282 278 274 269 268 267 265 264 262 261 261 259 258 256 255 253 248 248 243 240 238 236 235 234 234 234 232 232 232 232 229 228 227 224 223 223 222 222
291 291 293 291 287 282 279 278 274 272 270 267 265 262 260 261 261 259 255 253 251 246 247 245 241 239 236 235 234 234 235 234 234 234 233 231 230 229 228 227 226 226 226
291 290 289 288 285 282 280 280 277 274 270 268 268 265 262 260 259 258 255 252 250 245 245 246 243 241 237 235 235 234 235 235 235 235 234 233 232 231 230 230 230 229 228
292 289 288 287 285 283 281 280 278 275 271 269 269 267 264 262 259 258 257 252 249 247 245 245 244 242 239 236 236 236 236 237 236 236 235 234 233 233 232 232 232 231 229
293 290 289 288 287 284 282 280 278 275 273 271 270 267 264 262 260 258 257 253 250 248 247 245 245 242 239 236 235 236 236 237 237 236 235 234 234 234 234 234 234 232 230
292 290 289 288 287 286 284 281 278 276 273 271 270 267 264 261 260 258 256 254 251 249 247 245 244 243 241 239 236 236 236 236 238 236 235 234 234 235 236 234 233 232 232
297 294 291 289 288 286 285 283 280 277 274 272 269 266 263 261 258 257 256 254 250 247 246 246 244 242 243 243 241 237 238 238 238 237 236 235 236 236 236 236 234 233 232
302 300 296 293 290 287 285 282 281 278 274 271 269 266 263 260 258 257 256 254 249 245 244 245 245 243 243 244 244 242 240 239 239 237 237 236 236 235 235 236 235 233 232
305 303 300 297 293 291 288 285 282 279 276 272 269 265 263 260 258 256 254 252 250 245 244 244 244 244 243 242 243 243 242 240 239 238 238 237 236 235 235 235 233 232 232
308 306 303 299 297 294 290 287 284 280 278 274 270 267 263 260 257 255 253 252 249 247 246 245 244 244 244 241 242 243 242 241 239 238 237 237 236 235 235 234 233 232 232
310 308 305 302 300 297 293 289 285 281 278 274 271 267 265 262 259 257 255 252 250 249 249 247 246 245 246 243 242 242 241 240 238 238 236 236 235 235 235 233 233 232 231
312 311 308 305 302 299 296 292 288 283 278 274 271 268 265 263 261 259 256 254 252 250 249 249 248 247 245 244 242 242 240 239 239 238 236 235 235 235 234 233 233 232 231
316 314 311 308 305 302 298 295 290 285 280 275 271 268 265 263 262 259 258 255 253 251 250 249 249 248 247 245 243 242 241 239 238 239 238 236 234 233 233 232 232 231 231
320 317 314 311 308 305 301 296 292 287 281 276 272 269 266 264 261 259 257 256 254 252 250 249 248 248 247 245 243 242 241 239 237 237 237 236 234 233 232 231 231 230 230
321 319 316 313 310 307 303 300 295 289 284 279 274 270 267 264 262 260 258 256 254 252 250 249 248 246 246 245 244 241 240 238 236 236 235 235 234 233 231 230 229 229 229
323 321 318 315 312 309 306 302 298 293 288 282 277 273 269 266 263 261 259 256 254 251 250 248 247 245 245 244 243 241 240 238 236 235 234 234 234 232 230 228 229 228 228
324 323 321 318 314 311 308 305 301 297 292 286 280 276 271 267 264 261 259 256 253 251 249 248 246 245 243 243 242 241 239 237 236 235 234 233 233 232 229 227 227 227 228
326 324 322 320 317 314 310 306 303 300 296 290 284 279 273 268 264 261 258 255 253 251 249 247 246 244 243 242 241 240 239 237 235 235 233 232 232 231 229 227 227 227 227
327 325 324 321 319 316 314 310 307 303 298 293 288 283 277 271 265 261 258 255 253 249 248 246 245 244 243 241 240 239 237 236 235 234 233 231 231 231 229 227 226 225 226
328 326 324 323 321 319 317 314 310 306 302 296 290 285 279 273 267 262 259 255 253 250 247 245 244 243 242 240 238 237 235 234 234 233 232 231 230 229 226 225 225 224 225
330 328 327 325 324 321 319 316 313 309 304 300 294 287 281 276 270 265 261 257 254 250 248 245 243 241 239 238 237 235 234 233 232 231 231 231 230 228 226 224 223 222 224
331 330 328 327 326 323 320 318 316 313 309 304 299 291 285 279 273 268 263 258 254 250 247 245 242 239 237 236 235 233 232 231 230 230 229 230 231 229 225 222 222 221 221
332 331 330 328 327 325 323 321 319 317 313 308 302 296 290 283 276 271 267 261 256 251 248 246 242 238 234 233 232 231 230 229 228 228 228 228 228 227 224 221 221 221 220
Height
5867 5866 5865 5865 5864 5864 5864 5864 5865 5867 5868 5869 5870 5871 5872 5873 5874 5875 5876 5877 5879 5881 5884 5886 5889 5891 5894 5897 5899 5902 5905 5907 5909 5911 5913 5915 5917 5919 5921 5923 5925 5926 5928
5861 5861 5860 5859 5858 5858 5859 5860 5860 5860 5861 5863 5864 5865 5866 5867 5869 5870 5872 5873 5874 5876 5879 5881 5884 5887 5890 5893 5896 5898 5901 5904 5907 5909 5911 5913 5915 5917 5920 5922 5924 5925 5927
5856 5856 5855 5854 5853 5853 5853 5853 5854 5855 5855 5857 5858 5859 5860 5862 5863 5865 5866 5868 5869 5871 5873 5876 5879 5882 5885 5888 5891 5894 5897 5900 5903 5906 5908 5911 5913 5915 5918 5920 5922 5924 5926
5851 5851 5849 5848 5848 5848 5848 5848 5848 5849 5849 5851 5852 5853 5854 5856 5857 5858 5860 5862 5863 5866 5868 5870 5873 5877 5880 5883 5886 5889 5893 5896 5899 5902 5905 5908 5910 5913 5915 5918 5920 5922 5924
5846 5846 5845 5843 5843 5843 5842 5842 5842 5843 5844 5845 5845 5847 5848 5849 5851 5852 5853 5855 5857 5860 5862 5864 5867 5870 5873 5877 5880 5884 5887 5891 5894 5898 5901 5904 5907 5910 5912 5915 5917 5920 5922
5841 5840 5839 5838 5837 5837 5837 5837 5837 5837 5837 5838 5839 5840 5841 5843 5844 5846 5847 5849 5851 5853 5856 5858 5861 5864 5867 5871 5874 5878 5882 5885 5889 5892 5896 5899 5902 5906 5909 5911 5914 5917 5919
5836 5835 5834 5833 5832 5831 5831 5831 5830 5831 5831 5831 5832 5833 5834 5835 5837 5839 5840 5842 5845 5847 5850 5853 5854 5857 5861 5864 5868 5872 5875 5879 5883 5886 5890 5894 5898 5901 5904 5907 5910 5913 5916
5830 5829 5827 5826 5826 5825 5824 5824 5824 5824 5824 5824 5825 5826 5827 5829 5830 5832 5834 5835 5838 5841 5844 5846 5848 5851 5854 5857 5861 5865 5868 5872 5876 5880 5884 5888 5892 5896 5899 5903 5906 5909 5912
5824 5823 5821 5820 5819 5818 5817 5817 5816 5816 5816 5816 5817 5818 5820 5821 5823 5825 5827 5828 5830 5833 5836 5839 5841 5844 5847 5850 5854 5857 5861 5865 5869 5873 5877 5882 5886 5890 5894 5897 5901 5904 5907
5818 5817 5815 5814 5812 5811 5810 5809 5808 5808 5808 5808 5808 5809 5811 5813 5814 5816 5818 5820 5822 5825 5828 5830 5833 5836 5840 5843 5846 5850 5853 5858 5862 5866 5870 5875 5879 5883 5887 5891 5894 5898 5902
5812 5810 5808 5807 5805 5804 5802 5801 5800 5800 5800 5800 5800 5800 5802 5803 5805 5807 5809 5811 5814 5817 5820 5822 5825 5828 5832 5835 5838 5842 5846 5850 5854 5858 5862 5867 5871 5875 5880 5884 5888 5892 5896
5806 5804 5802 5800 5798 5796 5794 5793 5792 5791 5790 5790 5791 5791 5792 5794 5796 5798 5800 5802 5805 5808 5811 5814 5817 5820 5823 5826 5830 5834 5837 5841 5845 5850 5854 5859 5863 5868 5872 5877 5881 5885 5890
5800 5797 5795 5792 5790 5788 5786 5784 5783 5782 5781 5781 5781 5781 5782 5784 5786 5788 5790 5793 5796 5799 5802 5805 5808 5811 5814 5817 5822 5825 5829 5833 5837 5841 5846 5851 5855 5860 5865 5870 5874 5879 5883
5794 5791 5788 5785 5782 5780 5777 5775 5774 5773 5772 5771 5771 5771 5772 5774 5775 5778 5780 5783 5786 5789 5792 5795 5798 5801 5805 5808 5813 5816 5820 5824 5828 5832 5837 5842 5847 5852 5857 5862 5867 5871 5876
5787 5784 5780 5777 5774 5771 5769 5766 5764 5763 5762 5761 5761 5762 5762 5763 5765 5767 5769 5772 5775 5778 5782 5784 5787 5791 5795 5798 5803 5807 5811 5815 5820 5824 5829 5834 5839 5844 5849 5854 5859 5864 5869
5781 5777 5773 5769 5766 5762 5759 5757 5755 5753 5752 5751 5751 5752 5752 5753 5754 5756 5758 5761 5764 5767 5770 5774 5777 5780 5784 5788 5793 5797 5801 5806 5810 5815 5820 5825 5830 5836 5840 5846 5851 5856 5861
5775 5770 5766 5762 5758 5754 5751 5748 5745 5743 5742 5741 5740 5741 5741 5742 5743 5745 5747 5749 5752 5755 5758 5762 5765 5768 5772 5777 5782 5787 5791 5795 5801 5806 5811 5816 5821 5827 5832 5837 5843 5848 5854
5768 5763 5759 5754 5750 5746 5742 5739 5736 5733 5731 5730 5729 5729 5729 5730 5731 5732 5734 5737 5739 5742 5746 5750 5753 5757 5761 5765 5771 5776 5780 5785 5790 5796 5801 5806 5812 5817 5823 5829 5834 5840 5846
5762 5756 5751 5747 5742 5738 5733 5730 5726 5723 5721 5719 5718 5717 5717 5718 5719 5720 5721 5724 5727 5730 5733 5737 5741 5745 5749 5754 5759 5764 5769 5774 5780 5786 5791 5797 5802 5808 5814 5820 5826 5832 5838
5755 5749 5744 5739 5734 5729 5725 5720 5716 5713 5710 5708 5706 5705 5705 5705 5706 5707 5708 5710 5713 5717 5720 5724 5729 5732 5737 5742 5747 5752 5758 5763 5769 5775 5781 5787 5792 5798 5804 5811 5817 5823 5829
5748 5743 5737 5731 5726 5721 5716 5712 5707 5703 5700 5697 5695 5693 5692 5692 5693 5693 5695 5697 5700 5703 5707 5711 5716 5720 5724 5729 5735 5740 5746 5752 5758 5763 5770 5777 5783 5788 5794 5801 5808 5814 5821
5742 5735 5729 5723 5717 5712 5707 5703 5698 5694 5690 5687 5684 5682 5680 5680 5680 5680 5682 5683 5686 5690 5694 5698 5702 5707 5712 5717 5722 5728 5734 5741 5747 5754 5759 5765 5771 5778 5785 5791 5798 5805 5811
5735 5728 5722 5716 5710 5704 5699 5694 5689 5685 5680 5677 5674 5671 5669 5668 5668 5668 5669 5670 5673 5675 5680 5684 5689 5694 5699 5705 5710 5716 5722 5728 5735 5741 5748 5754 5760 5767 5774 5781 5788 5795 5802
5728 5722 5715 5709 5702 5696 5691 5685 5680 5675 5671 5667 5663 5660 5658 5656 5656 5656 5657 5658 5660 5663 5666 5671 5676 5681 5685 5691 5697 5704 5710 5717 5724 5730 5737 5744 5750 5757 5764 5771 5778 5785 5792
5722 5715 5708 5702 5695 5689 5683 5677 5672 5667 5662 5658 5653 5650 5648 5646 5644 5644 5645 5647 5648 5650 5653 5657 5662 5667 5672 5679 5685 5692 5699 5706 5713 5720 5726 5733 5740 5747 5753 5760 5767 5775 5782
5715 5708 5702 5695 5688 5682 5675 5669 5664 5659 5654 5649 5645 5641 5638 5636 5634 5633 5633 5634 5636 5638 5641 5644 5649 5654 5659 5666 5673 5681 5688 5695 5702 5709 5716 5723 5730 5737 5743 5750 5758 5765 5773